Location: Czu?�w
(50.1404°N, 18.9919°E)
Time: 03:13:36
(UTC+00:00)

USA 281 - Pass Details

Date: 27 October 2020
Orbit: 1079 x 1080 km, 106.0° (Epoch: 23 November)

Event Time Altitude Azimuth Distance (km) Brightness Sun altitude
Rises 16:39:10 0° 173° (S) 3,863 6.1 -11.8°
Reaches altitude 10° 16:41:48 10° 179° (S) 2,911 5.6 -12.2°
Maximum altitude 16:48:02 46° 252° (WSW) 1,418 4.4 -13.2°
Drops below altitude 10° 16:54:20 10° 324° (NW) 2,929 5.9 -14.2°
Sets 16:57:00 0° 331° (NNW) 3,889 6.5 -14.7°
